Theta_e
316 317 318 319 319 320 321 320 318 319 319 318 319 320 323 323 325 327 326 326 328 326 326 325 328 331 333 337 339 338 336 336 337 339 338 339 340 340 341 340 341 339 339 338 340
314 315 317 318 319 320 320 320 318 320 319 318 319 321 323 324 324 325 326 328 326 325 326 327 329 330 334 339 339 339 335 335 336 337 338 338 338 339 341 340 339 337 336 337 337
313 314 315 317 318 319 320 320 318 319 320 318 320 321 322 324 325 328 327 328 327 326 326 327 330 333 337 339 339 338 336 337 338 338 339 339 340 340 340 341 338 337 336 337 337
313 313 314 315 317 319 320 319 318 319 320 318 319 321 322 323 333 329 328 327 327 326 325 328 332 337 337 340 339 340 339 338 339 339 340 341 341 341 341 341 340 338 337 337 337
312 313 313 314 315 317 319 319 318 319 320 319 319 320 322 328 332 329 328 327 327 326 326 329 334 338 337 338 339 339 339 339 340 340 340 341 341 341 341 341 340 339 337 336 335
312 312 312 313 314 316 319 319 318 320 320 320 318 320 323 330 329 328 328 328 326 327 329 329 335 337 338 339 339 338 338 339 340 340 341 342 342 342 342 341 339 338 337 335 334
311 312 312 313 314 315 319 319 318 319 319 319 317 319 323 329 328 327 328 327 324 324 328 333 336 337 337 337 339 338 339 341 341 341 341 341 344 345 342 342 340 338 337 335 334
311 312 312 312 314 316 319 318 319 319 319 318 317 319 329 327 326 327 328 325 325 325 325 331 336 337 337 337 337 339 339 338 341 341 342 342 344 344 343 341 341 340 339 336 335
310 311 312 312 314 317 318 319 319 319 320 316 318 322 329 326 327 327 326 326 326 326 327 327 334 334 335 336 337 337 336 337 338 340 341 343 343 343 342 342 341 341 340 338 336
310 311 312 312 314 317 318 320 321 320 320 317 319 322 326 328 325 326 327 326 327 330 330 331 332 334 333 334 335 335 336 336 337 339 342 343 342 341 342 343 341 342 341 340 339
310 311 312 312 314 316 319 321 322 324 322 322 322 323 325 324 325 326 327 326 326 328 331 330 332 332 331 333 334 335 336 337 337 340 341 340 341 339 339 341 343 342 342 341 340
310 311 312 312 314 316 318 319 316 317 321 321 321 320 322 322 326 326 327 329 328 331 330 331 331 330 330 333 334 336 337 337 338 341 341 339 339 338 340 342 344 343 342 341 341
310 311 312 312 314 315 318 316 317 318 323 323 321 321 323 323 327 328 327 330 331 331 331 331 330 329 332 335 336 336 337 337 338 339 341 338 339 338 339 339 341 343 344 343 343
310 310 311 312 315 314 319 316 316 319 327 325 322 322 321 324 327 326 327 329 330 331 331 332 330 330 332 333 335 336 336 337 337 338 337 339 340 339 339 338 339 339 338 338 338
309 310 311 312 312 314 315 315 317 320 331 327 322 321 323 326 328 326 326 328 331 331 331 332 331 331 332 333 335 338 338 339 338 337 340 337 340 337 338 337 340 339 339 338 336
309 310 311 312 312 313 313 316 320 330 331 325 323 323 325 326 326 326 327 327 329 330 331 331 330 330 330 334 337 337 339 338 338 336 336 337 340 337 338 338 340 339 338 337 337
310 310 311 311 314 312 314 320 331 332 329 323 323 324 326 327 327 327 328 329 330 331 331 330 331 330 329 333 338 338 337 337 336 335 335 337 340 338 337 338 339 339 338 337 336
310 311 311 312 312 314 318 326 335 329 330 327 323 324 326 327 328 327 327 329 330 331 331 331 331 330 332 334 336 335 336 337 337 335 333 336 335 336 337 338 339 338 337 338 336
310 311 312 313 313 317 323 327 331 330 328 328 323 323 325 326 326 327 328 329 328 330 331 331 330 330 334 334 337 339 337 338 338 338 336 332 334 336 337 338 339 339 337 338 337
310 311 317 318 315 321 325 322 329 326 326 328 326 325 324 324 324 326 328 328 328 327 330 331 330 330 332 334 336 337 337 338 338 337 334 332 334 337 336 338 340 340 337 336 337
310 316 319 315 320 324 326 325 323 324 325 329 331 328 330 327 326 326 327 327 327 328 329 331 332 331 332 333 334 337 338 339 338 338 335 335 335 337 337 340 341 338 337 334 332
310 318 319 320 324 324 324 323 321 325 326 328 331 334 334 334 329 327 327 329 333 331 330 331 334 331 330 334 335 337 337 338 337 335 337 339 339 338 339 339 339 338 336 332 331
315 316 321 319 324 324 325 324 323 326 327 328 332 334 335 334 334 329 333 333 329 331 333 333 337 336 338 338 337 337 337 338 341 342 337 338 336 337 339 339 338 337 336 332 332
315 321 325 322 322 327 326 326 328 326 326 326 331 333 337 338 338 335 335 334 333 334 329 335 339 335 332 333 333 334 334 337 338 336 337 335 336 336 339 341 339 338 334 332 332
314 321 324 325 324 326 326 327 328 328 327 327 332 336 337 338 336 335 335 335 333 331 334 341 335 334 333 333 333 332 333 333 335 335 337 336 337 338 341 340 338 337 333 331 332
316 319 323 325 327 328 324 328 328 327 328 329 332 336 338 341 340 337 336 337 338 337 338 340 337 336 334 333 334 334 333 333 334 336 337 337 339 339 340 338 338 336 333 332 332
312 316 322 325 329 328 327 328 327 328 328 329 336 334 336 336 335 336 336 336 337 339 341 341 341 339 336 335 335 335 333 333 335 337 340 339 340 339 339 339 338 336 333 334 333
Wind_Speed
16 15 16 17 18 20 20 22 22 19 15 7 4 6 6 5 5 6 1 2 1 1 1 1 2 3 1 1 3 2 2 7 8 2 9 6 4 2 0 3 3 4 2 1 9
16 16 15 16 17 18 20 21 21 19 15 7 5 6 6 5 5 6 5 4 2 3 2 3 2 2 1 2 2 6 9 11 5 5 5 6 5 3 4 4 5 6 4 5 10
15 15 16 15 16 17 19 21 21 19 15 7 5 7 6 5 5 3 7 4 0 1 3 2 3 1 1 1 4 4 10 5 4 1 4 3 3 3 5 3 4 5 6 10 11
17 15 15 16 15 16 18 21 21 19 15 7 5 8 6 7 1 5 5 4 2 1 1 3 3 2 2 5 3 2 4 0 2 4 2 2 1 4 8 3 2 5 6 11 12
18 18 16 15 15 15 16 19 20 20 13 5 5 8 7 6 1 4 6 5 2 2 3 4 2 2 4 3 3 6 4 2 3 5 5 3 7 8 8 9 4 5 10 12 10
17 18 17 16 15 14 15 17 19 17 8 3 5 9 6 11 5 5 5 5 2 2 3 2 4 3 4 4 5 5 4 3 5 5 6 8 6 5 3 10 9 9 11 11 11
16 17 17 16 14 14 14 15 16 13 7 3 5 9 6 1 7 8 9 7 3 2 3 3 2 6 4 3 1 4 8 4 5 4 5 6 13 9 5 10 13 12 12 12 12
16 16 16 16 14 13 13 15 15 11 12 4 6 7 4 8 5 9 10 7 3 1 2 2 2 2 5 2 3 5 3 5 5 3 3 6 7 5 5 11 14 13 14 15 15
15 15 16 15 14 12 12 16 16 7 8 3 4 5 7 5 4 8 9 3 3 1 2 2 2 4 3 7 9 4 8 8 3 1 2 5 11 7 1 7 11 11 14 16 17
15 15 15 15 14 12 12 17 6 1 6 1 2 5 5 7 7 9 11 7 3 2 2 3 5 9 3 9 10 9 9 9 8 6 4 9 9 8 2 5 9 10 13 16 17
15 15 14 14 12 12 10 11 4 1 7 6 1 6 4 3 7 9 11 8 4 5 5 1 10 10 13 9 8 8 7 8 7 6 7 9 10 10 11 5 5 10 12 12 13
16 15 13 13 10 10 8 6 9 7 7 7 10 12 7 4 7 10 12 11 10 9 2 9 1 7 7 6 3 4 8 10 1 6 6 10 8 7 8 8 6 4 3 6 9
16 14 13 12 6 8 4 9 13 11 6 3 6 9 6 7 7 14 15 13 10 9 6 6 6 5 4 2 8 7 10 9 9 4 1 14 8 8 4 4 6 5 3 2 6
15 14 13 10 4 9 2 10 14 6 4 7 6 7 8 6 7 7 12 8 8 11 6 6 2 5 7 4 9 8 8 4 5 9 9 7 3 11 8 3 10 12 10 8 8
14 14 11 10 9 6 5 12 13 1 6 4 7 4 9 11 8 6 9 7 12 10 6 4 5 8 9 8 7 6 4 5 4 4 7 11 8 9 5 10 11 10 10 10 11
14 15 11 10 8 3 8 10 4 6 2 5 5 10 13 11 6 6 6 5 4 7 8 13 1 5 6 2 3 3 8 5 5 4 1 7 6 9 9 9 9 9 10 11 13
14 14 13 9 5 8 7 3 5 5 3 5 7 10 14 10 7 9 10 8 8 9 14 13 15 3 6 8 5 7 6 5 5 6 8 4 8 8 9 7 6 6 10 11 12
14 13 11 9 6 4 3 4 5 3 2 3 4 10 13 11 7 5 6 9 10 10 9 10 13 12 7 7 7 2 6 5 10 9 11 6 6 6 4 5 4 4 9 11 13
14 11 9 7 5 1 4 7 3 2 3 1 8 10 9 8 4 9 10 8 4 12 9 6 11 7 2 3 5 5 4 4 6 7 7 6 7 6 4 4 3 5 8 11 12
13 9 5 8 5 2 5 3 1 3 4 3 4 4 10 12 11 9 11 4 11 11 13 4 6 4 4 4 3 6 2 5 4 6 13 12 10 8 11 7 5 5 8 9 9
10 5 7 5 4 5 5 2 2 3 3 3 1 5 2 7 11 9 9 4 2 4 9 7 6 5 4 7 6 4 8 2 3 5 8 9 11 8 7 6 6 6 8 9 10
5 4 6 6 6 3 4 2 4 4 0 2 3 2 1 4 7 7 6 2 0 5 6 6 5 9 4 4 4 5 4 3 5 8 4 6 4 5 5 5 3 5 6 7 7
6 5 4 5 4 6 2 2 3 4 3 3 1 3 1 4 3 5 3 3 5 3 5 8 4 7 8 6 5 4 2 1 2 3 10 7 6 2 4 2 2 4 3 4 6
4 3 3 4 2 5 2 1 1 3 4 3 2 1 3 3 3 7 7 4 4 3 5 2 1 4 7 7 4 3 2 1 4 7 8 8 14 13 10 4 1 1 2 4 6
2 1 2 4 6 4 4 1 2 1 2 2 3 2 1 3 6 6 6 10 5 5 2 2 2 1 3 1 2 4 7 4 7 5 6 13 13 12 10 7 3 1 1 2 5
3 3 2 3 4 6 3 3 2 1 2 3 3 2 1 4 5 4 5 2 4 5 2 1 3 2 4 3 6 8 6 5 6 7 8 9 8 10 9 5 4 1 2 2 2
3 4 2 3 4 5 4 3 0 4 2 2 1 3 6 7 6 6 7 5 5 3 2 2 2 5 4 1 7 9 2 6 7 6 6 10 13 12 9 7 6 3 5 4 2
Wind_Direction
356 358 359 358 1 1 2 4 2 2 358 332 239 211 190 200 199 203 241 249 243 322 280 289 238 265 319 28 33 296 114 70 78 136 88 136 212 176 187 259 206 194 270 348 176
349 346 351 350 351 354 353 356 358 355 355 331 234 214 195 194 216 233 239 237 267 18 132 180 256 217 160 62 34 306 65 65 46 77 69 144 215 162 220 215 224 220 229 181 173
346 341 339 340 341 344 345 347 352 346 351 334 233 213 206 188 213 193 229 216 343 63 180 197 153 91 356 333 33 20 61 78 109 203 316 137 204 206 238 271 254 219 188 187 186
338 340 335 331 332 334 338 339 344 343 339 332 234 213 209 190 225 187 197 189 219 254 188 173 209 237 322 16 19 296 79 16 87 184 229 211 245 229 240 359 9 233 206 195 199
330 334 334 329 324 326 331 333 339 339 328 321 227 213 193 226 24 202 212 202 236 1 250 226 256 318 4 23 288 347 38 223 216 213 226 216 235 246 250 235 252 218 200 202 209
326 328 332 328 323 321 326 329 337 339 327 297 213 213 192 227 235 217 176 173 160 54 309 248 339 353 9 10 334 341 311 260 233 216 212 231 251 247 213 212 208 206 204 205 213
325 324 329 329 327 319 323 325 334 338 321 266 208 207 218 228 215 215 177 174 161 86 354 293 226 320 330 294 320 299 289 191 207 224 243 252 242 225 256 189 208 213 212 214 221
322 325 329 331 329 322 323 325 326 309 357 265 203 187 203 220 209 197 184 170 190 292 278 241 264 318 319 310 231 282 229 349 105 202 164 242 331 128 183 205 221 224 222 219 228
323 329 334 332 333 328 330 333 323 294 316 295 190 182 182 182 165 180 173 185 198 328 267 197 256 289 238 280 215 164 3 22 78 219 330 251 330 84 132 233 252 238 235 230 232
327 331 337 334 338 333 343 341 351 297 320 342 211 192 195 162 168 174 183 167 174 167 197 244 253 256 331 348 18 353 355 359 9 38 261 280 294 326 248 229 267 266 253 243 238
327 334 340 338 343 340 348 7 1 174 327 264 200 270 124 178 176 180 185 189 206 237 277 295 284 23 348 341 324 322 330 343 20 32 305 13 340 356 21 22 253 257 256 255 250
328 333 341 341 349 352 359 54 31 316 305 270 260 255 231 186 179 173 177 191 207 243 216 230 281 9 338 340 303 291 305 28 92 34 305 347 338 35 24 27 18 343 283 276 270
325 334 341 345 356 4 22 13 352 347 265 250 228 230 206 195 201 182 185 209 222 222 223 296 25 317 311 59 297 75 355 352 349 326 221 322 130 67 67 26 45 61 59 334 301
324 331 339 355 16 356 340 340 339 332 259 147 196 218 196 195 207 178 194 225 214 246 201 286 14 302 311 38 340 2 7 330 339 334 17 340 55 67 22 36 75 62 53 38 15
324 323 337 344 332 343 281 332 330 289 212 123 153 201 176 195 167 176 194 220 246 211 228 246 279 336 294 19 332 33 327 343 328 344 299 26 287 56 62 41 60 54 43 33 17
322 317 326 328 328 292 314 330 327 231 148 138 146 177 176 193 164 135 181 214 273 241 234 272 301 285 351 336 329 142 256 249 246 269 16 26 314 72 33 16 30 40 41 32 26
319 311 311 308 285 302 312 328 238 266 151 143 163 185 197 179 156 178 184 188 213 219 231 223 240 214 240 243 177 243 295 308 343 351 26 64 272 35 28 26 16 33 41 39 32
318 308 301 288 291 301 321 231 258 77 71 120 181 181 195 179 188 165 180 204 222 239 273 229 222 202 170 262 329 25 324 349 326 348 331 145 356 30 20 43 77 67 55 43 39
323 311 301 283 267 197 261 238 28 32 16 255 162 187 193 192 243 209 228 251 239 213 235 228 247 119 61 302 300 131 269 23 287 215 279 351 15 154 73 91 81 77 51 43 40
330 321 265 291 194 189 250 289 340 346 326 219 190 232 186 187 202 214 216 250 234 223 236 219 270 175 113 192 124 290 97 243 232 321 319 340 296 36 360 359 22 70 46 40 33
333 313 295 176 175 231 252 46 310 355 291 264 140 169 195 173 209 193 185 137 221 174 214 247 254 141 201 213 332 186 208 249 301 285 321 319 342 55 358 359 7 39 43 34 24
331 248 302 173 224 235 243 335 328 314 286 273 287 31 174 165 196 206 199 290 293 195 189 186 242 242 268 65 314 291 337 286 299 327 344 282 316 49 12 7 31 41 53 42 33
316 274 302 196 238 204 179 251 275 310 348 2 76 20 123 151 159 199 164 48 138 166 168 174 200 204 176 169 172 257 102 15 299 270 286 312 349 77 31 342 72 21 53 64 48
310 242 189 212 281 297 255 160 250 284 278 322 331 237 173 138 186 157 139 94 102 107 136 159 104 322 342 20 359 254 199 306 300 285 344 312 343 339 23 11 30 -0 93 59 66
263 115 304 194 199 267 277 304 272 182 244 291 187 74 50 124 140 136 136 134 116 151 110 285 138 217 74 68 260 306 303 251 263 302 297 337 329 0 6 345 350 2 102 146 91
282 314 259 272 277 252 197 190 258 335 282 144 259 52 9 78 14 124 143 94 74 116 82 45 170 238 188 217 265 290 302 237 276 286 285 316 334 11 350 320 282 294 201 264 86
286 310 295 176 193 228 205 222 229 337 166 313 246 167 111 61 44 59 76 74 68 34 75 294 155 242 266 246 291 262 204 287 301 282 327 316 350 336 334 333 315 298 286 335 253